GLOBALSTAR M084

Last updated on Sat Sep 05 2026 00:03:16 GMT+0000 (Coordinated Universal Time)

1 38040U 11080A 26246.73011090 -.00000116 00000+0 -66200-4 0 9993 2 38040 51.9999 138.1704 0000384 57.8223 320.2354 12.62263936678689
UTC large
Height (km)
Speed (km/s)
/
Latitude / Longitude
Inclination (degrees)
Orbital Period (minutes)
Azimuth
Elevation
Range (km)
Doppler Factor

Next 0 passes for location: London (51.5072 / 0.1276)

No passes found over London.
GLOBALSTAR M084